Date,TemperatureHighF,TemperatureAvgF,TemperatureLowF,DewpointHighF,DewpointAvgF,DewpointLowF,HumidityHigh,HumidityAvg,HumidityLow,PressureMaxIn,PressureMinIn,WindSpeedMaxMPH,WindSpeedAvgMPH,GustSpeedMaxMPH,PrecipitationSumIn
2013-4-1,54.3,41.0,31.5,46.5,35.4,21.6,94,81,67,30.06,29.65,26,4,28,0.02
2013-4-2,38.8,32.4,26.1,28.8,23.5,18.7,94,70,65,30.18,30.03,27,3,30,0.00
2013-4-3,41.7,33.9,27.2,31.2,24.2,17.3,81,67,64,30.42,30.15,24,5,31,0.00
2013-4-4,56.1,42.3,29.5,46.1,32.4,20.2,75,68,65,30.52,30.10,20,3,23,0.00
2013-4-5,54.8,42.6,30.8,44.9,33.6,22.0,82,70,67,30.14,29.87,21,3,25,0.00
2013-4-6,47.8,37.1,27.7,38.8,28.2,19.7,78,70,67,30.44,30.13,18,3,18,0.00
2013-4-7,59.9,46.3,28.3,50.1,37.4,21.0,79,71,68,30.40,29.92,16,4,27,0.00
2013-4-8,62.4,51.0,37.9,54.6,42.3,34.0,89,72,68,30.24,30.01,14,3,16,0.00
2013-4-9,62.2,56.3,50.7,52.9,47.9,37.1,83,74,69,30.11,29.91,22,4,23,0.00
2013-4-10,57.9,51.2,46.4,52.2,48.1,34.4,96,89,74,30.10,29.93,10,2,10,0.64
2013-4-11,46.7,40.5,32.5,45.1,34.4,20.3,95,79,69,30.29,30.01,13,3,16,0.05
2013-4-12,40.1,35.9,32.0,37.3,33.5,22.9,94,91,82,30.28,29.91,15,2,15,0.51
2013-4-13,51.8,43.1,37.2,43.2,38.9,35.1,94,86,72,30.07,29.91,15,2,15,0.00
2013-4-14,48.0,41.3,28.6,40.2,35.7,26.0,94,80,73,30.40,30.06,19,3,21,0.00
2013-4-15,60.8,44.9,26.3,51.5,38.1,20.6,98,78,66,30.51,30.26,16,3,17,0.00
2013-4-16,61.1,53.7,44.7,55.2,45.4,34.7,89,74,68,30.39,30.06,20,4,23,0.11
2013-4-17,64.4,52.7,41.3,47.1,37.0,28.8,83,58,28,30.44,30.22,16,3,23,0.00
2013-4-18,65.6,50.4,32.9,47.5,36.2,29.6,91,62,35,30.48,30.08,29,5,34,0.00
2013-4-19,71.6,61.2,44.0,61.9,54.5,38.7,88,79,65,30.08,29.59,25,5,27,0.71
2013-4-20,56.1,45.6,36.3,39.8,32.0,20.6,89,62,35,30.47,29.86,22,4,22,0.13
2013-4-21,51.6,39.5,29.5,29.1,20.5,15.6,83,49,26,30.79,30.46,16,3,19,0.00
2013-4-22,59.0,44.5,27.7,28.9,24.6,18.2,87,51,23,30.84,30.53,15,3,16,0.00
2013-4-23,53.9,43.1,30.1,38.6,31.4,23.8,89,64,54,30.64,30.27,11,2,11,0.00
2013-4-24,73.4,53.8,29.7,49.8,40.3,26.7,92,64,39,30.28,29.73,15,3,16,0.00
2013-4-25,62.2,48.1,34.8,50.3,31.5,22.2,83,56,28,30.41,29.86,20,4,21,0.01
2013-4-26,59.5,45.8,31.1,36.4,30.6,25.4,91,59,33,30.58,30.40,16,3,17,0.00
2013-4-27,67.1,49.3,29.3,41.3,31.5,25.3,91,57,23,30.60,30.31,10,2,11,0.00
2013-4-28,74.4,56.6,34.1,42.0,35.9,31.2,92,53,24,30.43,30.13,9,2,13,0.00
2013-4-29,59.9,55.5,51.4,48.1,40.7,28.5,87,59,38,30.29,30.22,16,3,19,0.00
2013-4-30,52.1,51.7,51.0,48.4,47.3,44.4,88,85,77,30.29,30.28,5,2,8,0.00